Regional Weather Roundup
Issued by NWS

Home | Current Version | Previous Version | Text Only | Print | Product List | Glossary On
Versions: 1 2 3 4 5 6 7 8 9 10 11 12 13 14 15 16 17 18 19 20 21 22 23 24 25 26 27 28 29 30 31 32 33 34 35 36 37 38 39 40 41 42 43 44 45 46 47 48 49 50
960
ASCA42 TJSJ 012010
RWRPR
PUERTO RICO/U.S. VIRGIN ISLANDS HOURLY WEATHER ROUNDUP
NATIONAL WEATHER SERVICE SAN JUAN PR
400 PM AST SUN MAY 01 2016

PRZ001-004-012100-
PUERTO RICO

CITY           SKY/WX    TMP DP  RH WIND       PRES   REMARKS
SAN JUAN LMM   PTSUNNY   77  73  88 SE5       29.97R
AGUADILLA      PTSUNNY   81  72  74 E13       29.96S
CEIBA          LGT RAIN  75  72  88 SE13G20   30.01S
$$

PRZ006-007-012100-
U.S. VIRGIN ISLANDS

CITY           SKY/WX    TMP DP  RH WIND       PRES   REMARKS
CHARLOTTE AMA  CLOUDY    81  73  78 SE12      29.97S
CHRISTIANSTED  LGT RAIN  72  70  94 SE10      30.01F FOG
$$

HOURLY WEATHER ROUNDUP FOR THE NEWS MEDIA

CITY           SKY/WX    TMP DP  RH WIND       PRES   REMARKS
ORLANDO        PTSUNNY   87  66  49 E7        29.99F
NEW YORK       LGT RAIN  48  44  86 E13       30.15F FOG
NEWARK         LGT RAIN  45  44  97 SE9       30.13F
CHICAGO        CLOUDY    48  44  86 NE10      30.00S
HARTFORD       LGT RAIN  49  32  52 S8        30.21S
BOSTON         CLOUDY    51  28  41 SE5       30.22F
DALLAS         MOSUNNY   74  48  39 N13G25    30.00F
PHILADELPHIA   LGT RAIN  53  49  86 SE3       30.11F FOG
LOS ANGELES    MOSUNNY   69  53  56 W10       29.93S
WASHINGTON DC  CLOUDY    58  54  86 E6        30.02F



USA.gov is the U.S. government's official web portal to all federal, state and local government web resources and services.